User: anonymous   Login
Location: Unspecified
(0.0000°N, 0.0000°E)
Time: 10:39:38
(UTC+00:00)
Language:

Tiros 10 - Orbit

View from above orbital plane
View from above orbital plane
View from above satellite
View from above satellite

Ground track
Ground track

The orbit data is extracted from the following two-line orbital elements,

1  1430U 65051A   17178.85893133 +.00000001 +00000-0 +13147-4 0  9990
2  1430 098.1431 332.5237 0055681 222.0758 137.6149 14.40192171724196
Epoch (UTC): 27 June 2017 20:36:51
Eccentricity: 0.0055681
inclination: 98.1431°
perigee height: 718 km
apogee height: 797 km
right ascension of ascending node: 332.5237°
argument of perigee: 222.0758°
revolutions per day: 14.40192171
mean anomaly at epoch: 137.6149°
orbit number at epoch: 72419

The dashed part of the orbit path shows where the satellite is in the earth's shadow,  

DLR